Location: Bazinghen
(50.8246°N, 1.6616°E)
Time: 11:13:08
(UTC+00:00)

Okean 3 Rocket - Pass Details

Date: 09 April 2020
Orbit: 616 x 644 km, 82.5° (Epoch: 22 May)

Event Time Altitude Azimuth Distance (km) Brightness Sun altitude
Rises 20:47:10 0° 353° (N) 2,914 7.8 -18.6°
Reaches altitude 10° 20:49:27 10° 358° (N) 2,006 6.7 -18.9°
Maximum altitude 20:53:48 51° 75° (ENE) 790 3.8 -19.4°
Enters shadow 20:54:36 45° 112° (ESE) 862 3.8 -19.5°
